SRV160M GOOY-DRRN

Flight info

Callsign SRV160M
Flight time N/A
Altitude 45000
Route ANITI UM974 GALIV
Aircraft C750/M-SBDE3FGHRWXY/S

Departure

Time N/A
Airport Léopold Sédar Senghor International Airport (GOOY)

Arrival

Time 2026-05-06 14:33
Airport Diori Hamani International Airport (DRRN)
Time Latitude Longitude Altitude Speed Heading
2026-05-06 13:15 14.57273 -5.15414 44739 ft 521 kts 93°
2026-05-06 13:15 14.57172 -5.12934 44743 ft 521 kts 93°
2026-05-06 13:16 14.56522 -4.97073 44743 ft 521 kts 93°
2026-05-06 13:17 14.56212 -4.89600 44747 ft 521 kts 93°
2026-05-06 13:17 14.55900 -4.82123 44752 ft 521 kts 93°
2026-05-06 13:18 14.55584 -4.74628 44758 ft 523 kts 93°
2026-05-06 13:18 14.55265 -4.67120 44748 ft 523 kts 93°
2026-05-06 13:19 14.54945 -4.59621 44744 ft 523 kts 93°
2026-05-06 13:19 14.54624 -4.52177 44749 ft 523 kts 93°
2026-05-06 13:20 14.54299 -4.44680 44749 ft 522 kts 93°
2026-05-06 13:20 14.53971 -4.37186 44762 ft 522 kts 93°
2026-05-06 13:21 14.53641 -4.29692 44776 ft 522 kts 93°
2026-05-06 13:21 14.53309 -4.22202 44790 ft 522 kts 93°
2026-05-06 13:22 14.52975 -4.14716 44795 ft 521 kts 93°
2026-05-06 13:22 14.52641 -4.07294 44795 ft 521 kts 93°
2026-05-06 13:23 14.52102 -3.99824 44806 ft 521 kts 95°
2026-05-06 13:23 14.51565 -3.92364 44798 ft 521 kts 95°
2026-05-06 13:24 14.50997 -3.84911 44790 ft 521 kts 95°
2026-05-06 13:24 14.50446 -3.77449 44769 ft 521 kts 95°
2026-05-06 13:25 14.49881 -3.69998 44768 ft 520 kts 95°
2026-05-06 13:25 14.49325 -3.62604 44760 ft 520 kts 95°
2026-05-06 13:26 14.48760 -3.55168 44765 ft 520 kts 95°
2026-05-06 13:26 14.48193 -3.47718 44775 ft 520 kts 95°
2026-05-06 13:27 14.47624 -3.40282 44778 ft 520 kts 95°
2026-05-06 13:27 14.47052 -3.32835 44770 ft 520 kts 95°
2026-05-06 13:28 14.46576 -3.26663 44771 ft 519 kts 95°
2026-05-06 13:28 14.46002 -3.19234 44780 ft 519 kts 95°
2026-05-06 13:29 14.45329 -3.10599 44771 ft 519 kts 95°
2026-05-06 13:29 14.44844 -3.04382 44766 ft 519 kts 95°
2026-05-06 13:30 14.44267 -2.97011 44767 ft 519 kts 95°
2026-05-06 13:30 14.43683 -2.89589 44765 ft 519 kts 95°
2026-05-06 13:31 14.43097 -2.82166 44767 ft 518 kts 95°
2026-05-06 13:31 14.42508 -2.74749 44761 ft 518 kts 95°
2026-05-06 13:32 14.41918 -2.67337 44769 ft 518 kts 95°
2026-05-06 13:32 14.41330 -2.59974 44763 ft 518 kts 95°
2026-05-06 13:33 14.40736 -2.52570 44763 ft 518 kts 95°
2026-05-06 13:33 14.40116 -2.45167 44755 ft 518 kts 97°
2026-05-06 13:34 14.38787 -2.37869 44762 ft 517 kts 103°
2026-05-06 13:34 14.37404 -2.30591 44764 ft 517 kts 101°
2026-05-06 13:35 14.36068 -2.23338 44757 ft 517 kts 102°
2026-05-06 13:35 14.34678 -2.16057 44761 ft 517 kts 101°
2026-05-06 13:36 14.33324 -2.08767 44759 ft 517 kts 102°
2026-05-06 13:36 14.31937 -2.01481 44782 ft 518 kts 102°
2026-05-06 13:37 14.30569 -1.94181 44767 ft 519 kts 102°
2026-05-06 13:37 14.29178 -1.86868 44768 ft 519 kts 102°
2026-05-06 13:38 14.27806 -1.79604 44761 ft 519 kts 102°
2026-05-06 13:38 14.26416 -1.72298 44759 ft 519 kts 102°
2026-05-06 13:39 14.25029 -1.64991 44769 ft 519 kts 102°
2026-05-06 13:39 14.23635 -1.57677 44763 ft 519 kts 102°
2026-05-06 13:40 14.22239 -1.50359 44759 ft 520 kts 102°
2026-05-06 13:40 14.20842 -1.43050 44759 ft 520 kts 102°
2026-05-06 13:41 14.19442 -1.35739 44755 ft 520 kts 102°
2026-05-06 13:41 14.18048 -1.28473 44761 ft 520 kts 102°
2026-05-06 13:42 14.16643 -1.21158 44761 ft 520 kts 102°
2026-05-06 13:42 14.15235 -1.13841 44765 ft 521 kts 102°
2026-05-06 13:43 14.13825 -1.06525 44771 ft 521 kts 102°
2026-05-06 13:43 14.12411 -0.99204 44776 ft 521 kts 102°
2026-05-06 13:44 14.10995 -0.91882 44771 ft 521 kts 102°
2026-05-06 13:44 14.09575 -0.84554 44766 ft 521 kts 102°
2026-05-06 13:45 14.08163 -0.77281 44761 ft 521 kts 102°
2026-05-06 13:45 14.06026 -0.66289 44759 ft 522 kts 102°
2026-05-06 13:46 14.04598 -0.58957 44763 ft 522 kts 102°
2026-05-06 13:46 14.03164 -0.51613 44767 ft 522 kts 102°
2026-05-06 13:47 14.01697 -0.44284 44753 ft 522 kts 105°
2026-05-06 13:47 13.98981 -0.37402 44768 ft 519 kts 120°
2026-05-06 13:48 13.95500 -0.30944 44770 ft 520 kts 119°
2026-05-06 13:48 13.92345 -0.24241 44773 ft 520 kts 118°
2026-05-06 13:49 13.88976 -0.17662 44779 ft 520 kts 119°
2026-05-06 13:49 13.85721 -0.10998 44770 ft 520 kts 118°
2026-05-06 13:50 13.82401 -0.04377 44765 ft 520 kts 119°
2026-05-06 13:50 13.79111 0.02256 44779 ft 521 kts 118°
2026-05-06 13:51 13.75805 0.08888 44782 ft 520 kts 119°
2026-05-06 13:51 13.72498 0.15516 44784 ft 521 kts 118°
2026-05-06 13:52 13.69213 0.22109 44794 ft 521 kts 119°
2026-05-06 13:52 13.67575 0.25384 44335 ft 511 kts 119°
2026-05-06 13:52 13.65963 0.28620 43610 ft 502 kts 118°
2026-05-06 13:53 13.64381 0.31790 42942 ft 493 kts 119°
2026-05-06 13:53 13.62826 0.34898 42297 ft 485 kts 119°
2026-05-06 13:53 13.61294 0.37957 41659 ft 478 kts 119°
2026-05-06 13:53 13.59776 0.40992 41027 ft 476 kts 119°
2026-05-06 13:54 13.58261 0.44022 40388 ft 478 kts 119°
2026-05-06 13:54 13.56729 0.47078 39753 ft 482 kts 119°
2026-05-06 13:54 13.55188 0.50152 39108 ft 485 kts 119°
2026-05-06 13:54 13.53642 0.53243 38455 ft 487 kts 118°
2026-05-06 13:55 13.52089 0.56344 37765 ft 487 kts 118°
2026-05-06 13:55 13.50535 0.59442 37107 ft 489 kts 118°
2026-05-06 13:55 13.48972 0.62552 36454 ft 491 kts 118°
2026-05-06 13:55 13.47405 0.65676 35793 ft 493 kts 118°
2026-05-06 13:56 13.45832 0.68814 35136 ft 495 kts 118°
2026-05-06 13:56 13.44249 0.71965 34473 ft 497 kts 118°
2026-05-06 13:56 13.42677 0.75093 33813 ft 499 kts 118°
2026-05-06 13:56 13.41086 0.78261 33127 ft 498 kts 118°
2026-05-06 13:57 13.39517 0.81434 32449 ft 497 kts 116°
2026-05-06 13:57 13.38506 0.84824 31734 ft 498 kts 99°
2026-05-06 13:57 13.38385 0.88359 31109 ft 496 kts 86°
2026-05-06 13:57 13.38653 0.91904 30473 ft 499 kts 84°
2026-05-06 13:58 13.38970 0.95444 29780 ft 495 kts 84°
2026-05-06 13:58 13.39252 0.98935 29086 ft 486 kts 85°
2026-05-06 13:58 13.39492 1.02379 28434 ft 481 kts 85°
2026-05-06 13:58 13.39740 1.05775 27793 ft 474 kts 85°
2026-05-06 13:59 13.40009 1.09080 27170 ft 467 kts 85°
2026-05-06 13:59 13.40274 1.12378 26549 ft 461 kts 85°
2026-05-06 13:59 13.40517 1.15646 25935 ft 455 kts 85°
2026-05-06 13:59 13.40755 1.18864 25326 ft 449 kts 85°
2026-05-06 14:00 13.41001 1.22037 24731 ft 443 kts 85°
2026-05-06 14:00 13.41244 1.25167 24140 ft 437 kts 86°
2026-05-06 14:00 13.41479 1.28255 23558 ft 430 kts 86°
2026-05-06 14:00 13.41708 1.31307 22936 ft 425 kts 86°
2026-05-06 14:01 13.41935 1.34323 22368 ft 421 kts 86°
2026-05-06 14:01 13.42163 1.37306 21806 ft 416 kts 86°
2026-05-06 14:01 13.42387 1.40255 21251 ft 412 kts 86°
2026-05-06 14:01 13.42607 1.43176 20702 ft 408 kts 87°
2026-05-06 14:02 13.42824 1.46066 20160 ft 405 kts 87°
2026-05-06 14:02 13.43040 1.48936 19619 ft 401 kts 87°
2026-05-06 14:02 13.43254 1.51777 19080 ft 397 kts 87°
2026-05-06 14:02 13.43465 1.54592 18558 ft 394 kts 87°
2026-05-06 14:03 13.43675 1.57385 18020 ft 390 kts 87°
2026-05-06 14:03 13.43879 1.60114 17478 ft 385 kts 87°
2026-05-06 14:03 13.44083 1.62845 16959 ft 382 kts 87°
2026-05-06 14:03 13.44285 1.65551 16451 ft 378 kts 87°
2026-05-06 14:04 13.44484 1.68228 15947 ft 374 kts 87°
2026-05-06 14:04 13.44682 1.70884 15445 ft 371 kts 87°
2026-05-06 14:04 13.44876 1.73509 14955 ft 366 kts 86°
2026-05-06 14:04 13.44834 1.76109 14454 ft 362 kts 95°
2026-05-06 14:05 13.44593 1.78680 13983 ft 360 kts 96°
2026-05-06 14:05 13.44354 1.81225 13489 ft 357 kts 95°
2026-05-06 14:05 13.44151 1.83764 13000 ft 355 kts 95°
2026-05-06 14:05 13.43953 1.86284 12522 ft 353 kts 95°
2026-05-06 14:06 13.43738 1.88798 12054 ft 352 kts 95°
2026-05-06 14:06 13.43520 1.91294 11581 ft 351 kts 95°
2026-05-06 14:06 13.43312 1.93778 11115 ft 343 kts 95°
2026-05-06 14:06 13.43121 1.96144 10668 ft 323 kts 95°
2026-05-06 14:07 13.42874 1.98336 10236 ft 305 kts 100°
2026-05-06 14:07 13.42328 2.00387 9854 ft 292 kts 107°
2026-05-06 14:07 13.41695 2.02338 9463 ft 285 kts 108°
2026-05-06 14:07 13.41052 2.04261 9092 ft 286 kts 108°
2026-05-06 14:08 13.40409 2.06196 8726 ft 286 kts 109°
2026-05-06 14:08 13.39769 2.08139 8392 ft 287 kts 108°
2026-05-06 14:08 13.39129 2.10089 8045 ft 288 kts 108°
2026-05-06 14:08 13.38491 2.12044 7728 ft 289 kts 108°
2026-05-06 14:09 13.37857 2.14001 7407 ft 289 kts 108°
2026-05-06 14:09 13.37223 2.15961 7099 ft 290 kts 108°
2026-05-06 14:09 13.36590 2.17930 6810 ft 289 kts 108°
2026-05-06 14:09 13.35959 2.19897 6497 ft 290 kts 109°
2026-05-06 14:10 13.35330 2.21868 6224 ft 290 kts 109°
2026-05-06 14:10 13.34712 2.23815 5911 ft 291 kts 108°
2026-05-06 14:10 13.34087 2.25802 5519 ft 291 kts 109°
2026-05-06 14:10 13.33475 2.27754 5200 ft 279 kts 109°
2026-05-06 14:11 13.32943 2.29571 4968 ft 254 kts 106°
2026-05-06 14:11 13.32570 2.31299 4692 ft 244 kts 102°
2026-05-06 14:11 13.32229 2.33003 4426 ft 242 kts 102°
2026-05-06 14:11 13.31941 2.34654 4103 ft 225 kts 98°
2026-05-06 14:12 13.32287 2.36169 3643 ft 218 kts 58°
2026-05-06 14:12 13.33227 2.37334 3265 ft 206 kts 45°
2026-05-06 14:12 13.34196 2.38379 2977 ft 198 kts 38°
2026-05-06 14:12 13.35404 2.39050 2514 ft 198 kts 19°
2026-05-06 14:13 13.36670 2.39429 2386 ft 183 kts
2026-05-06 14:13 13.37906 2.39528 2506 ft 183 kts 355°
2026-05-06 14:13 13.39166 2.39404 2516 ft 183 kts 353°
2026-05-06 14:13 13.40450 2.39405 2518 ft 187 kts
2026-05-06 14:14 13.41636 2.39938 2349 ft 193 kts 44°
2026-05-06 14:14 13.42527 2.40967 2384 ft 197 kts 31°
2026-05-06 14:14 13.43774 2.41401 2440 ft 188 kts
2026-05-06 14:14 13.45067 2.41383 2492 ft 185 kts 353°
2026-05-06 14:15 13.46359 2.41286 2484 ft 186 kts 354°
2026-05-06 14:15 13.47633 2.41074 2420 ft 185 kts 333°
2026-05-06 14:15 13.48614 2.40283 2474 ft 180 kts 306°
2026-05-06 14:15 13.49108 2.39163 2493 ft 175 kts 279°
2026-05-06 14:16 13.49120 2.37921 2518 ft 178 kts 265°
2026-05-06 14:16 13.49058 2.36663 2513 ft 176 kts 266°
2026-05-06 14:16 13.49011 2.35422 2483 ft 173 kts 266°
2026-05-06 14:16 13.48954 2.34193 2504 ft 172 kts 265°
2026-05-06 14:17 13.48899 2.32969 2495 ft 173 kts 266°
2026-05-06 14:17 13.48844 2.31736 2509 ft 173 kts 267°
2026-05-06 14:17 13.48786 2.30500 2481 ft 174 kts 267°
2026-05-06 14:17 13.48747 2.29646 2399 ft 177 kts 266°
2026-05-06 14:18 13.48692 2.28474 2157 ft 151 kts 267°
2026-05-06 14:18 13.48646 2.27508 1984 ft 126 kts 268°
2026-05-06 14:18 13.48609 2.26619 1877 ft 128 kts 267°
2026-05-06 14:18 13.48569 2.25730 1694 ft 117 kts 265°
2026-05-06 14:19 13.48532 2.24892 1602 ft 125 kts 268°
2026-05-06 14:19 13.48490 2.23992 1434 ft 129 kts 265°
2026-05-06 14:19 13.48458 2.23053 1303 ft 133 kts 265°
2026-05-06 14:19 13.48395 2.22113 1131 ft 130 kts 266°
2026-05-06 14:20 13.48361 2.21181 962 ft 131 kts 267°
2026-05-06 14:20 13.48317 2.20258 810 ft 128 kts 267°
2026-05-06 14:20 13.48271 2.19368 719 ft 117 kts 267°
2026-05-06 14:20 13.48236 2.18570 721 ft 131 kts 266°
2026-05-06 14:21 13.48192 2.17484 883 ft 161 kts 268°
2026-05-06 14:21 13.47936 2.16444 1343 ft 137 kts 244°
2026-05-06 14:21 13.47350 2.15693 1664 ft 144 kts 225°
2026-05-06 14:21 13.46412 2.15127 2092 ft 165 kts 204°
2026-05-06 14:22 13.45261 2.14943 2767 ft 178 kts 181°
2026-05-06 14:22 13.44016 2.15228 3257 ft 194 kts 164°
2026-05-06 14:22 13.42817 2.15847 3636 ft 188 kts 150°
2026-05-06 14:22 13.41767 2.16596 3841 ft 187 kts 146°
2026-05-06 14:23 13.40775 2.17499 4045 ft 196 kts 136°
2026-05-06 14:23 13.39937 2.18586 4227 ft 197 kts 123°
2026-05-06 14:23 13.39304 2.19821 4428 ft 195 kts 119°
2026-05-06 14:23 13.38659 2.21046 4605 ft 197 kts 116°
2026-05-06 14:24 13.38251 2.22387 4461 ft 202 kts 105°
2026-05-06 14:24 13.38063 2.23817 4312 ft 200 kts 96°
2026-05-06 14:24 13.37983 2.25226 4166 ft 198 kts 94°
2026-05-06 14:24 13.37927 2.26652 3902 ft 202 kts 91°
2026-05-06 14:25 13.37961 2.28089 3598 ft 201 kts 87°
2026-05-06 14:25 13.38061 2.29504 3417 ft 195 kts 85°
2026-05-06 14:25 13.38368 2.30853 3283 ft 197 kts 71°
2026-05-06 14:25 13.38869 2.32161 3056 ft 196 kts 67°
2026-05-06 14:26 13.39376 2.33460 2828 ft 193 kts 67°
2026-05-06 14:26 13.39912 2.34698 2798 ft 193 kts 63°
2026-05-06 14:26 13.40551 2.35917 2759 ft 192 kts 60°
2026-05-06 14:26 13.41324 2.37046 2719 ft 194 kts 49°
2026-05-06 14:27 13.42302 2.37905 2559 ft 173 kts 30°
2026-05-06 14:27 13.43285 2.38374 2444 ft 147 kts 18°
2026-05-06 14:27 13.44231 2.38772 2173 ft 143 kts 20°
2026-05-06 14:27 13.45157 2.39079 2094 ft 140 kts
2026-05-06 14:28 13.46091 2.39157 2088 ft 134 kts 355°
2026-05-06 14:28 13.46991 2.39008 2086 ft 130 kts 339°
2026-05-06 14:28 13.47812 2.38604 2118 ft 132 kts 326°
2026-05-06 14:28 13.48476 2.37992 2051 ft 127 kts 302°
2026-05-06 14:29 13.48705 2.37136 1982 ft 128 kts 276°
2026-05-06 14:29 13.48790 2.36258 1959 ft 122 kts 273°
2026-05-06 14:29 13.48842 2.35388 1969 ft 125 kts 271°
2026-05-06 14:29 13.48895 2.34388 2080 ft 153 kts 271°
2026-05-06 14:30 13.48907 2.33247 2254 ft 165 kts 266°
2026-05-06 14:30 13.48830 2.32067 2362 ft 165 kts 265°
2026-05-06 14:30 13.48771 2.30940 2437 ft 144 kts 266°
2026-05-06 14:30 13.48730 2.29977 2324 ft 129 kts 266°
2026-05-06 14:31 13.48706 2.29068 2290 ft 126 kts 269°
2026-05-06 14:31 13.48680 2.28151 2106 ft 132 kts 267°
2026-05-06 14:31 13.48622 2.27206 1885 ft 132 kts 267°
2026-05-06 14:31 13.48563 2.26284 1802 ft 128 kts 265°
2026-05-06 14:32 13.48546 2.25391 1631 ft 125 kts 268°
2026-05-06 14:32 13.48500 2.24464 1647 ft 137 kts 266°
2026-05-06 14:32 13.48453 2.23477 1570 ft 134 kts 269°
2026-05-06 14:32 13.48426 2.22530 1291 ft 133 kts 265°
2026-05-06 14:33 13.48374 2.21591 1035 ft 130 kts 268°
2026-05-06 14:33 13.48332 2.20664 791 ft 129 kts 267°
2026-05-06 14:33 13.48294 2.19808 710 ft 106 kts 266°
2026-05-06 14:33 13.48268 2.19270 711 ft 45 kts 267°
2026-05-06 14:34 13.48259 2.19095 715 ft 6 kts 268°
2026-05-06 14:34 13.48259 2.19100 716 ft 0 kts 268°